Flag for Hong Kong Weather past 2 weeks in Kowloon, Hong Kong

Now
86 °F

Scattered clouds.


Feels Like: 92 °F
Forecast: 82 / 90 °F
Wind: 3 mph from Northeast

Location: National Airport

Current Time: Jul 6, 2015 at 9:56:17 AM

Latest Report: Jul 6, 2015 at 9:00 AM


Visibility: N/A

Pressure: 29.59 "Hg

Humidity: 62%

Dew point: 72 °F

Location of KowloonLocation

Historic Weather in Kowloon — Graph

°F

Kowloon temperature yesterday

Maximum temperature yesterday: 93 °F (at 11:00 AM)
Minimum temperature yesterday: 84 °F (at 3:00 AM)
Average temperature yesterday: 88 °F

Past Weeks' High & Low Weather Summary

 TemperatureHumidityPressure
High95 °F (Jun 30, 2:00 PM)94% (Jun 22, 3:30 PM)29.83 "Hg (Jun 22, 3:30 PM)
Low77 °F (Jun 23, 9:00 AM)52% (Jun 28, 10:00 AM)29.53 "Hg (Jul 5, 5:00 PM)
Average87 °F73%29.66 "Hg
* Reported Jun 21 9:00 AM — Jul 6 9:00 AM, Kowloon, Weather by CustomWeather, © 2015

Note: Actual official high and low records may vary slightly from our data, if they occured in-between our weather recording intervals... More about our weather records

Advertising

Kowloon weather history for previous 24 hours

 ConditionsComfort  
Time TempWeatherWind HumidityBarometerVisibility
9:00 AM
Mon, Jul 6
86 °FScattered clouds.3 mph62%29.59 "HgN/A
8:30 AM84 °FScattered clouds.3 mph66%29.59 "HgN/A
8:00 AM84 °FScattered clouds.6 mph66%29.59 "HgN/A
7:30 AM84 °FScattered clouds.9 mph70%29.59 "HgN/A
7:00 AM84 °FScattered clouds.9 mph74%29.59 "HgN/A
6:30 AM84 °FScattered clouds.7 mph70%29.59 "HgN/A
6:00 AM84 °FScattered clouds.5 mph70%29.59 "HgN/A
5:30 AM84 °FPassing clouds.8 mph79%29.59 "HgN/A
5:00 AM84 °FPassing clouds.6 mph74%29.56 "HgN/A
4:30 AM84 °FPassing clouds.5 mph79%29.56 "HgN/A
4:00 AM84 °FPassing clouds.5 mph79%29.56 "HgN/A
3:30 AM84 °FPassing clouds.3 mph79%29.56 "HgN/A
3:00 AM84 °FPassing clouds.6 mph79%29.56 "HgN/A
2:30 AM86 °FPassing clouds.3 mph79%29.59 "HgN/A
2:00 AM86 °FPassing clouds.3 mph79%29.59 "HgN/A
1:30 AM86 °FPassing clouds.3 mph79%29.59 "HgN/A
1:00 AM84 °FPassing clouds.6 mph84%29.59 "HgN/A
12:30 AM86 °FPassing clouds.5 mph75%29.59 "HgN/A
12:00 AM86 °FPassing clouds.5 mph79%29.62 "HgN/A
11:30 PM
Sun, Jul 5
86 °FPassing clouds.3 mph75%29.62 "HgN/A
11:00 PM86 °FPassing clouds.5 mph75%29.62 "HgN/A
10:30 PM86 °FPassing clouds.6 mph70%29.62 "HgN/A
10:00 PM88 °FPassing clouds.6 mph66%29.62 "HgN/A
9:30 PM88 °FPassing clouds.7 mph66%29.62 "HgN/A
9:00 PM88 °FPassing clouds.6 mph66%29.59 "HgN/A
8:30 PM86 °FPassing clouds.7 mph70%29.59 "HgN/A
8:00 PM88 °FPassing clouds.5 mph62%29.59 "HgN/A
7:30 PM90 °FPassing clouds.6 mph59%29.56 "HgN/A
7:00 PM90 °FPassing clouds.6 mph59%29.56 "HgN/A
6:30 PM88 °FPassing clouds.7 mph62%29.56 "HgN/A
6:00 PM91 °FPassing clouds.7 mph59%29.56 "HgN/A
5:30 PM93 °FPassing clouds.7 mph53%29.53 "HgN/A
5:00 PM91 °FPassing clouds.7 mph56%29.53 "HgN/A
4:30 PM91 °FPassing clouds.7 mph56%29.56 "HgN/A
4:00 PM91 °FPassing clouds.9 mph52%29.56 "HgN/A
3:30 PM91 °FPassing clouds.7 mph59%29.56 "HgN/A
3:00 PM93 °FScattered clouds.6 mph53%29.56 "HgN/A
2:30 PM91 °FScattered clouds.6 mph59%29.59 "HgN/A
2:00 PM90 °FScattered clouds.9 mph67%29.59 "HgN/A
1:30 PM91 °FScattered clouds.10 mph59%29.59 "HgN/A
1:00 PM93 °FScattered clouds.8 mph56%29.59 "HgN/A
12:30 PM91 °FScattered clouds.12 mph56%29.62 "HgN/A
11:30 AM91 °FScattered clouds.2 mph59%29.62 "HgN/A
11:00 AM93 °FScattered clouds.7 mph56%29.62 "HgN/A
10:30 AM91 °FScattered clouds.8 mph59%29.62 "HgN/A
10:00 AM90 °FScattered clouds.6 mph63%29.65 "HgN/A
9:30 AM90 °FPassing clouds.6 mph63%29.65 "HgN/A
9:00 AM88 °FPassing clouds.7 mph66%29.65 "HgN/A
Weather by CustomWeather, © 2015

See weather overviewHow to use our weather pages